This is the latest recevied weather packets stored in our database for station/object KM4NDN. If no packets are shown the sender has not sent any weather packets the latest 10 day(s).
| Time | Temp. | Humidity | Pressure | Rain* | Wind** | Luminosity | Snow |
|---|---|---|---|---|---|---|---|
| 1778060606 | 6.67° C | 94% | 1007.5 hPa | 0 mm | - | 0 W/m² | - |
| 1778060303 | 6.67° C | 94% | 1007.6 hPa | 0 mm | - | 0 W/m² | - |
| 1778060000 | 6.67° C | 94% | 1007.5 hPa | 0 mm | - | 0 W/m² | - |
| 1778059698 | 6.67° C | 94% | 1007.1 hPa | 0 mm | - | 0 W/m² | - |
| 1778059396 | 6.67° C | 94% | 1006.7 hPa | 1.27 mm | - | 0 W/m² | - |
| 1778059092 | 6.67° C | 94% | 1007.2 hPa | 1.27 mm | - | 0 W/m² | - |
| 1778058790 | 6.67° C | 93% | 1006.8 hPa | 0 mm | - | 0 W/m² | - |
| 1778058488 | 6.67° C | 93% | 1006.9 hPa | 1.78 mm | - | 0 W/m² | - |
| 1778058185 | 6.67° C | 93% | 1006.9 hPa | 1.78 mm | - | 0 W/m² | - |
| 1778057881 | 6.67° C | 93% | 1007.4 hPa | 0 mm | - | 0 W/m² | - |
| 1778057577 | 6.67° C | 93% | 1007.4 hPa | 0 mm | - | 0 W/m² | - |
| 1778057274 | 6.67° C | 94% | 1007.4 hPa | 0 mm | - | 0 W/m² | - |
| 1778056971 | 6.67° C | 94% | 1007.4 hPa | 0 mm | - | 0 W/m² | - |
| 1778056668 | 6.67° C | 94% | 1007.5 hPa | 0 mm | - | 0 W/m² | - |
| 1778056365 | 6.67° C | 94% | 1007.4 hPa | 0 mm | - | 0 W/m² | - |
| 1778056063 | 6.67° C | 94% | 1007.2 hPa | 0 mm | - | 0 W/m² | - |
| 1778055758 | 6.67° C | 94% | 1007.1 hPa | 1.27 mm | - | 0 W/m² | - |
| 1778055456 | 6.67° C | 94% | 1006.9 hPa | 1.27 mm | - | 0 W/m² | - |
| 1778055153 | 6.67° C | 93% | 1006.6 hPa | 0 mm | - | 0 W/m² | - |
| 1778054851 | 6.67° C | 93% | 1006.9 hPa | 0 mm | - | 0 W/m² | - |
| 1778054547 | 6.67° C | 92% | 1006.9 hPa | 1.78 mm | - | 0 W/m² | - |
| 1778054245 | 6.67° C | 92% | 1006.6 hPa | 1.78 mm | - | 0 W/m² | - |
| 1778053942 | 6.67° C | 91% | 1006.7 hPa | 1.27 mm | - | 0 W/m² | - |
| 1778053640 | 6.67° C | 91% | 1007 hPa | 1.27 mm | - | 0 W/m² | - |
| 1778053336 | 6.67° C | 90% | 1007.1 hPa | 0 mm | - | 0 W/m² | - |
* Rain latest hour (hover to see other rain measurements)
** Current wind speed in m/s (hover to see current wind gust speed)